Year,Month,Day,Hour,Minute,Value (Times are PST for temperature in C)
2008,04,25,00,00,4.40
2008,04,25,00,01,4.40
2008,04,25,00,02,4.40
2008,04,25,00,03,4.40
2008,04,25,00,04,4.40
2008,04,25,00,05,4.30
2008,04,25,00,06,4.30
2008,04,25,00,07,4.30
2008,04,25,00,08,4.30
2008,04,25,00,09,4.20
2008,04,25,00,10,4.20
2008,04,25,00,11,4.20
2008,04,25,00,12,4.20
2008,04,25,00,13,4.20
2008,04,25,00,14,4.10
2008,04,25,00,15,4.10
2008,04,25,00,16,4.00
2008,04,25,00,17,4.00
2008,04,25,00,18,4.00
2008,04,25,00,19,4.00
2008,04,25,00,20,4.00
2008,04,25,00,21,4.00
2008,04,25,00,22,3.90
2008,04,25,00,23,3.90
2008,04,25,00,24,3.80
2008,04,25,00,25,3.80
2008,04,25,00,26,3.80
2008,04,25,00,27,3.70
2008,04,25,00,28,3.60
2008,04,25,00,29,3.60
2008,04,25,00,30,3.50
2008,04,25,00,31,3.50
2008,04,25,00,32,3.40
2008,04,25,00,33,3.30
2008,04,25,00,34,3.20
2008,04,25,00,35,3.20
2008,04,25,00,36,3.10
2008,04,25,00,37,3.10
2008,04,25,00,38,3.10
2008,04,25,00,39,3.00
2008,04,25,00,40,2.90
2008,04,25,00,41,2.90
2008,04,25,00,42,2.90
2008,04,25,00,43,2.80
2008,04,25,00,44,2.80
2008,04,25,00,45,2.70
2008,04,25,00,46,2.70
2008,04,25,00,47,2.70
2008,04,25,00,48,2.80
2008,04,25,00,49,2.90
2008,04,25,00,50,3.10
2008,04,25,00,51,3.20
2008,04,25,00,52,3.30
2008,04,25,00,53,3.50
2008,04,25,00,54,3.60
2008,04,25,00,55,3.70
2008,04,25,00,56,3.80
2008,04,25,00,57,3.80
2008,04,25,00,58,3.80
2008,04,25,00,59,3.80
2008,04,25,01,00,3.70
2008,04,25,01,01,3.60
2008,04,25,01,02,3.50
2008,04,25,01,03,3.50
2008,04,25,01,04,3.40
2008,04,25,01,05,3.50
2008,04,25,01,06,3.50
2008,04,25,01,07,3.50
2008,04,25,01,08,3.50
2008,04,25,01,09,3.50
2008,04,25,01,10,3.40
2008,04,25,01,11,3.30
2008,04,25,01,12,3.30
2008,04,25,01,13,3.20
2008,04,25,01,14,3.20
2008,04,25,01,15,3.20
2008,04,25,01,16,3.10
2008,04,25,01,17,3.10
2008,04,25,01,18,3.10
2008,04,25,01,19,3.10
2008,04,25,01,20,3.10
2008,04,25,01,21,3.10
2008,04,25,01,22,3.10
2008,04,25,01,23,3.10
2008,04,25,01,24,3.10
2008,04,25,01,25,3.10
2008,04,25,01,26,3.10
2008,04,25,01,27,3.10
2008,04,25,01,28,3.10
2008,04,25,01,29,3.10
2008,04,25,01,30,3.00
2008,04,25,01,31,2.90
2008,04,25,01,32,2.90
2008,04,25,01,33,2.90
2008,04,25,01,34,2.90
2008,04,25,01,35,2.80
2008,04,25,01,36,2.80
2008,04,25,01,37,2.80
2008,04,25,01,38,2.70
2008,04,25,01,39,2.70
2008,04,25,01,40,2.70
2008,04,25,01,41,2.70
2008,04,25,01,42,2.60
2008,04,25,01,43,2.60
2008,04,25,01,44,2.60
2008,04,25,01,45,2.50
2008,04,25,01,46,2.50
2008,04,25,01,47,2.50
2008,04,25,01,48,2.40
2008,04,25,01,49,2.40
2008,04,25,01,50,2.40
2008,04,25,01,51,2.40
2008,04,25,01,52,2.40
2008,04,25,01,53,2.30
2008,04,25,01,54,2.30
2008,04,25,01,55,2.30
2008,04,25,01,56,2.30
2008,04,25,01,57,2.30
2008,04,25,01,58,2.30
2008,04,25,01,59,2.20
2008,04,25,02,00,2.30
2008,04,25,02,01,2.30
2008,04,25,02,02,2.40
2008,04,25,02,03,2.40
2008,04,25,02,04,2.40
2008,04,25,02,05,2.40
2008,04,25,02,06,2.50
2008,04,25,02,07,2.50
2008,04,25,02,08,2.50
2008,04,25,02,09,2.50
2008,04,25,02,10,2.50
2008,04,25,02,11,2.50
2008,04,25,02,12,2.50
2008,04,25,02,13,2.50
2008,04,25,02,14,2.50
2008,04,25,02,15,2.50
2008,04,25,02,16,2.50
2008,04,25,02,17,2.50
2008,04,25,02,18,2.50
2008,04,25,02,19,2.50
2008,04,25,02,20,2.50
2008,04,25,02,21,2.50
2008,04,25,02,22,2.60
2008,04,25,02,23,2.70
2008,04,25,02,24,2.70
2008,04,25,02,25,2.70
2008,04,25,02,26,2.80
2008,04,25,02,27,2.90
2008,04,25,02,28,2.90
2008,04,25,02,29,2.90
2008,04,25,02,30,2.90
2008,04,25,02,31,2.90
2008,04,25,02,32,2.90
2008,04,25,02,33,2.90
2008,04,25,02,34,2.90
2008,04,25,02,35,2.90
2008,04,25,02,36,2.90
2008,04,25,02,37,2.90
2008,04,25,02,38,2.90
2008,04,25,02,39,2.90
2008,04,25,02,40,2.80
2008,04,25,02,41,2.80
2008,04,25,02,42,2.70
2008,04,25,02,43,2.70
2008,04,25,02,44,2.70
2008,04,25,02,45,2.70
2008,04,25,02,46,2.60
2008,04,25,02,47,2.60
2008,04,25,02,48,2.50
2008,04,25,02,49,2.40
2008,04,25,02,50,2.40
2008,04,25,02,51,2.30
2008,04,25,02,52,2.30
2008,04,25,02,53,2.20
2008,04,25,02,54,2.20
2008,04,25,02,55,2.20
2008,04,25,02,56,2.10
2008,04,25,02,57,2.10
2008,04,25,02,58,2.00
2008,04,25,02,59,2.00
2008,04,25,03,00,1.90
2008,04,25,03,01,1.90
2008,04,25,03,02,1.90
2008,04,25,03,03,1.80
2008,04,25,03,04,1.80
2008,04,25,03,05,1.80
2008,04,25,03,06,1.80
2008,04,25,03,07,1.80
2008,04,25,03,08,1.70
2008,04,25,03,09,1.70
2008,04,25,03,10,1.70
2008,04,25,03,11,1.80
2008,04,25,03,12,1.80
2008,04,25,03,13,1.80
2008,04,25,03,14,1.80
2008,04,25,03,15,1.80
2008,04,25,03,16,1.80
2008,04,25,03,17,1.80
2008,04,25,03,18,1.80
2008,04,25,03,19,1.80
2008,04,25,03,20,1.80
2008,04,25,03,21,1.80
2008,04,25,03,22,1.80
2008,04,25,03,23,1.80
2008,04,25,03,24,1.80
2008,04,25,03,25,1.80
2008,04,25,03,26,1.80
2008,04,25,03,27,1.80
2008,04,25,03,28,1.80
2008,04,25,03,29,1.80
2008,04,25,03,30,1.70
2008,04,25,03,31,1.70
2008,04,25,03,32,1.70
2008,04,25,03,33,1.60
2008,04,25,03,34,1.60
2008,04,25,03,35,1.50
2008,04,25,03,36,1.50
2008,04,25,03,37,1.40
2008,04,25,03,38,1.40
2008,04,25,03,39,1.40
2008,04,25,03,40,1.30
2008,04,25,03,41,1.30
2008,04,25,03,42,1.30
2008,04,25,03,43,1.30
2008,04,25,03,44,1.20
2008,04,25,03,45,1.20
2008,04,25,03,46,1.20
2008,04,25,03,47,1.10
2008,04,25,03,48,1.10
2008,04,25,03,49,1.00
2008,04,25,03,50,1.00
2008,04,25,03,51,1.00
2008,04,25,03,52,1.00
2008,04,25,03,53,0.90
2008,04,25,03,54,0.90
2008,04,25,03,55,0.90
2008,04,25,03,56,0.90
2008,04,25,03,57,0.90
2008,04,25,03,58,0.90
2008,04,25,03,59,0.80
2008,04,25,04,00,0.80
2008,04,25,04,01,0.80
2008,04,25,04,02,0.80
2008,04,25,04,03,0.80
2008,04,25,04,04,0.80
2008,04,25,04,05,0.80
2008,04,25,04,06,0.80
2008,04,25,04,07,0.80
2008,04,25,04,08,0.80
2008,04,25,04,09,0.80
2008,04,25,04,10,0.80
2008,04,25,04,11,0.80
2008,04,25,04,12,0.80
2008,04,25,04,13,0.70
2008,04,25,04,14,0.70
2008,04,25,04,15,0.70
2008,04,25,04,16,0.60
2008,04,25,04,17,0.60
2008,04,25,04,18,0.60
2008,04,25,04,19,0.60
2008,04,25,04,20,0.60
2008,04,25,04,21,0.60
2008,04,25,04,22,0.60
2008,04,25,04,23,0.60
2008,04,25,04,24,0.60
2008,04,25,04,25,0.50
2008,04,25,04,26,0.50
2008,04,25,04,27,0.50
2008,04,25,04,28,0.50
2008,04,25,04,29,0.50
2008,04,25,04,30,0.40
2008,04,25,04,31,0.40
2008,04,25,04,32,0.40
2008,04,25,04,33,0.50
2008,04,25,04,34,0.60
2008,04,25,04,35,0.60
2008,04,25,04,36,0.60
2008,04,25,04,37,0.60
2008,04,25,04,38,0.60
2008,04,25,04,39,0.70
2008,04,25,04,40,0.70
2008,04,25,04,41,0.70
2008,04,25,04,42,0.60
2008,04,25,04,43,0.60
2008,04,25,04,44,0.60
2008,04,25,04,45,0.60
2008,04,25,04,46,0.60
2008,04,25,04,47,0.60
2008,04,25,04,48,0.60
2008,04,25,04,49,0.60
2008,04,25,04,50,0.60
2008,04,25,04,51,0.50
2008,04,25,04,52,0.50
2008,04,25,04,53,0.50
2008,04,25,04,54,0.50
2008,04,25,04,55,0.50
2008,04,25,04,56,0.50
2008,04,25,04,57,0.50
2008,04,25,04,58,0.50
2008,04,25,04,59,0.50
2008,04,25,05,00,0.40
2008,04,25,05,01,0.40
2008,04,25,05,02,0.40
2008,04,25,05,03,0.40
2008,04,25,05,04,0.40
2008,04,25,05,05,0.40
2008,04,25,05,06,0.40
2008,04,25,05,07,0.40
2008,04,25,05,08,0.40
2008,04,25,05,09,0.40
2008,04,25,05,10,0.40
2008,04,25,05,11,0.40
2008,04,25,05,12,0.40
2008,04,25,05,13,0.40
2008,04,25,05,14,0.40
2008,04,25,05,15,0.40
2008,04,25,05,16,0.40
2008,04,25,05,17,0.40
2008,04,25,05,18,0.40
2008,04,25,05,19,0.40
2008,04,25,05,20,0.40
2008,04,25,05,21,0.40
2008,04,25,05,22,0.40
2008,04,25,05,23,0.40
2008,04,25,05,24,0.40
2008,04,25,05,25,0.40
2008,04,25,05,26,0.40
2008,04,25,05,27,0.40
2008,04,25,05,28,0.40
2008,04,25,05,29,0.40
2008,04,25,05,30,0.40
2008,04,25,05,31,0.40
2008,04,25,05,32,0.30
2008,04,25,05,33,0.30
2008,04,25,05,34,0.30
2008,04,25,05,35,0.20
2008,04,25,05,36,0.20
2008,04,25,05,37,0.20
2008,04,25,05,38,0.10
2008,04,25,05,39,0.10
2008,04,25,05,40,0.10
2008,04,25,05,41,0.10
2008,04,25,05,42,0.10
2008,04,25,05,43,0.00
2008,04,25,05,44,-0.10
2008,04,25,05,45,-0.10
2008,04,25,05,46,-0.10
2008,04,25,05,47,-0.10
2008,04,25,05,48,-0.10
2008,04,25,05,49,-0.20
2008,04,25,05,50,-0.20
2008,04,25,05,51,-0.20
2008,04,25,05,52,-0.30
2008,04,25,05,53,-0.30
2008,04,25,05,54,-0.30
2008,04,25,05,55,-0.30
2008,04,25,05,56,-0.40
2008,04,25,05,57,-0.40
2008,04,25,05,58,-0.40
2008,04,25,05,59,-0.40
2008,04,25,06,00,-0.40
2008,04,25,06,01,-0.40
2008,04,25,06,02,-0.40
2008,04,25,06,03,-0.40
2008,04,25,06,04,-0.40
2008,04,25,06,05,-0.40
2008,04,25,06,06,-0.50
2008,04,25,06,07,-0.60
2008,04,25,06,08,-0.60
2008,04,25,06,09,-0.60
2008,04,25,06,10,-0.60
2008,04,25,06,11,-0.60
2008,04,25,06,12,-0.60
2008,04,25,06,13,-0.60
2008,04,25,06,14,-0.60
2008,04,25,06,15,-0.60
2008,04,25,06,16,-0.60
2008,04,25,06,17,-0.60
2008,04,25,06,18,-0.60
2008,04,25,06,19,-0.70
2008,04,25,06,20,-0.60
2008,04,25,06,21,-0.60
2008,04,25,06,22,-0.60
2008,04,25,06,23,-0.60
2008,04,25,06,24,-0.60
2008,04,25,06,25,-0.60
2008,04,25,06,26,-0.60
2008,04,25,06,27,-0.60
2008,04,25,06,28,-0.60
2008,04,25,06,29,-0.60
2008,04,25,06,30,-0.60
2008,04,25,06,31,-0.60
2008,04,25,06,32,-0.60
2008,04,25,06,33,-0.60
2008,04,25,06,34,-0.60
2008,04,25,06,35,-0.60
2008,04,25,06,36,-0.60
2008,04,25,06,37,-0.60
2008,04,25,06,38,-0.60
2008,04,25,06,39,-0.60
2008,04,25,06,40,-0.60
2008,04,25,06,41,-0.50
2008,04,25,06,42,-0.40
2008,04,25,06,43,-0.40
2008,04,25,06,44,-0.40
2008,04,25,06,45,-0.40
2008,04,25,06,46,-0.30
2008,04,25,06,47,-0.30
2008,04,25,06,48,-0.20
2008,04,25,06,49,-0.20
2008,04,25,06,50,-0.10
2008,04,25,06,51,-0.10
2008,04,25,06,52,-0.10
2008,04,25,06,53,-0.10
2008,04,25,06,54,-0.10
2008,04,25,06,55,0.00
2008,04,25,06,56,0.10
2008,04,25,06,57,0.10
2008,04,25,06,58,0.10
2008,04,25,06,59,0.10
2008,04,25,07,00,0.10
2008,04,25,07,01,0.20
2008,04,25,07,02,0.20
2008,04,25,07,03,0.30
2008,04,25,07,04,0.30
2008,04,25,07,05,0.40
2008,04,25,07,06,0.40
2008,04,25,07,07,0.50
2008,04,25,07,08,0.60
2008,04,25,07,09,0.60
2008,04,25,07,10,0.70
2008,04,25,07,11,0.70
2008,04,25,07,12,0.80
2008,04,25,07,13,0.80
2008,04,25,07,14,0.80
2008,04,25,07,15,0.90
2008,04,25,07,16,1.00
2008,04,25,07,17,1.00
2008,04,25,07,18,1.10
2008,04,25,07,19,1.20
2008,04,25,07,20,1.20
2008,04,25,07,21,1.20
2008,04,25,07,22,1.20
2008,04,25,07,23,1.30
2008,04,25,07,24,1.30
2008,04,25,07,25,1.30
2008,04,25,07,26,1.30
2008,04,25,07,27,1.30
2008,04,25,07,28,1.30
2008,04,25,07,29,1.30
2008,04,25,07,30,1.40
2008,04,25,07,31,1.40
2008,04,25,07,32,1.50
2008,04,25,07,33,1.50
2008,04,25,07,34,1.50
2008,04,25,07,35,1.60
2008,04,25,07,36,1.60
2008,04,25,07,37,1.70
2008,04,25,07,38,1.70
2008,04,25,07,39,1.70
2008,04,25,07,40,1.70
2008,04,25,07,41,1.70
2008,04,25,07,42,1.80
2008,04,25,07,43,1.80
2008,04,25,07,44,1.80
2008,04,25,07,45,1.80
2008,04,25,07,46,1.80
2008,04,25,07,47,1.80
2008,04,25,07,48,1.80
2008,04,25,07,49,1.80
2008,04,25,07,50,1.80
2008,04,25,07,51,1.80
2008,04,25,07,52,1.80
2008,04,25,07,53,1.90
2008,04,25,07,54,1.90
2008,04,25,07,55,2.00
2008,04,25,07,56,2.10
2008,04,25,07,57,2.20
2008,04,25,07,58,2.20
2008,04,25,07,59,2.30
2008,04,25,08,00,2.30
2008,04,25,08,01,2.40
2008,04,25,08,02,2.40
2008,04,25,08,03,2.50
2008,04,25,08,04,2.50
2008,04,25,08,05,2.60
2008,04,25,08,06,2.60
2008,04,25,08,07,2.70
2008,04,25,08,08,2.70
2008,04,25,08,09,2.70
2008,04,25,08,10,2.70
2008,04,25,08,11,2.70
2008,04,25,08,12,2.80
2008,04,25,08,13,2.90
2008,04,25,08,14,3.00
2008,04,25,08,15,3.10
2008,04,25,08,16,3.20
2008,04,25,08,17,3.30
2008,04,25,08,18,3.40
2008,04,25,08,19,3.50
2008,04,25,08,20,3.60
2008,04,25,08,21,3.70
2008,04,25,08,22,3.80
2008,04,25,08,23,3.90
2008,04,25,08,24,4.00
2008,04,25,08,25,4.10
2008,04,25,08,26,4.20
2008,04,25,08,27,4.20
2008,04,25,08,28,4.20
2008,04,25,08,29,4.30
2008,04,25,08,30,4.40
2008,04,25,08,31,4.50
2008,04,25,08,32,4.60
2008,04,25,08,33,4.60
2008,04,25,08,34,4.70
2008,04,25,08,35,4.80
2008,04,25,08,36,4.90
2008,04,25,08,37,5.10
2008,04,25,08,38,5.10
2008,04,25,08,39,5.30
2008,04,25,08,40,5.30
2008,04,25,08,41,5.50
2008,04,25,08,42,5.50
2008,04,25,08,43,5.60
2008,04,25,08,44,5.60
2008,04,25,08,45,5.70
2008,04,25,08,46,5.70
2008,04,25,08,47,5.70
2008,04,25,08,48,5.80
2008,04,25,08,49,5.90
2008,04,25,08,50,5.90
2008,04,25,08,51,5.90
2008,04,25,08,52,5.90
2008,04,25,08,53,5.90
2008,04,25,08,54,5.90
2008,04,25,08,55,5.90
2008,04,25,08,56,6.00
2008,04,25,08,57,6.10
2008,04,25,08,58,6.10
2008,04,25,08,59,6.20
2008,04,25,09,00,6.20
2008,04,25,09,01,6.30
2008,04,25,09,02,6.30
2008,04,25,09,03,6.40
2008,04,25,09,04,6.40
2008,04,25,09,05,6.40
2008,04,25,09,06,6.60
2008,04,25,09,07,6.60
2008,04,25,09,08,6.70
2008,04,25,09,09,6.70
2008,04,25,09,10,6.80
2008,04,25,09,11,6.90
2008,04,25,09,12,6.90
2008,04,25,09,13,7.00
2008,04,25,09,14,7.00
2008,04,25,09,15,7.10
2008,04,25,09,16,7.10
2008,04,25,09,17,7.20
2008,04,25,09,18,7.30
2008,04,25,09,19,7.30
2008,04,25,09,20,7.30
2008,04,25,09,21,7.40
2008,04,25,09,22,7.50
2008,04,25,09,23,7.50
2008,04,25,09,24,7.60
2008,04,25,09,25,7.70
2008,04,25,09,26,7.70
2008,04,25,09,27,7.70
2008,04,25,09,28,7.80
2008,04,25,09,29,7.80
2008,04,25,09,30,7.80
2008,04,25,09,31,7.90
2008,04,25,09,32,7.90
2008,04,25,09,33,8.00
2008,04,25,09,34,8.00
2008,04,25,09,35,8.10
2008,04,25,09,36,8.10
2008,04,25,09,37,8.10
2008,04,25,09,38,8.10
2008,04,25,09,39,8.10
2008,04,25,09,40,8.20
2008,04,25,09,41,8.20
2008,04,25,09,42,8.20
2008,04,25,09,43,8.20
2008,04,25,09,44,8.20
2008,04,25,09,45,8.20
2008,04,25,09,46,8.20
2008,04,25,09,47,8.20
2008,04,25,09,48,8.20
2008,04,25,09,49,8.20
2008,04,25,09,50,8.20
2008,04,25,09,51,8.20
2008,04,25,09,52,8.20
2008,04,25,09,53,8.20
2008,04,25,09,54,8.20
2008,04,25,09,55,8.10
2008,04,25,09,56,8.10
2008,04,25,09,57,8.10
2008,04,25,09,58,8.20
2008,04,25,09,59,8.20
2008,04,25,10,00,8.20
2008,04,25,10,01,8.20
2008,04,25,10,02,8.20
2008,04,25,10,03,8.20
2008,04,25,10,04,8.30
2008,04,25,10,05,8.40
2008,04,25,10,06,8.50
2008,04,25,10,07,8.50
2008,04,25,10,08,8.60
2008,04,25,10,09,8.70
2008,04,25,10,10,8.70
2008,04,25,10,11,8.70
2008,04,25,10,12,8.60
2008,04,25,10,13,8.60
2008,04,25,10,14,8.60
2008,04,25,10,15,8.60
2008,04,25,10,16,8.70
2008,04,25,10,17,8.70
2008,04,25,10,18,8.60
2008,04,25,10,19,8.60
2008,04,25,10,20,8.60
2008,04,25,10,21,8.70
2008,04,25,10,22,8.70
2008,04,25,10,23,8.70
2008,04,25,10,24,8.70
2008,04,25,10,25,8.70
2008,04,25,10,26,8.70
2008,04,25,10,27,8.60
2008,04,25,10,28,8.60
2008,04,25,10,29,8.60
2008,04,25,10,30,8.60
2008,04,25,10,31,8.60
2008,04,25,10,32,8.60
2008,04,25,10,33,8.70
2008,04,25,10,34,8.70
2008,04,25,10,35,8.70
2008,04,25,10,36,8.80
2008,04,25,10,37,8.90
2008,04,25,10,38,8.90
2008,04,25,10,39,8.90
2008,04,25,10,40,9.00
2008,04,25,10,41,9.10
2008,04,25,10,42,9.00
2008,04,25,10,43,8.90
2008,04,25,10,44,8.90
2008,04,25,10,45,8.80
2008,04,25,10,46,8.80
2008,04,25,10,47,8.70
2008,04,25,10,48,8.70
2008,04,25,10,49,8.70
2008,04,25,10,50,8.70
2008,04,25,10,51,8.80
2008,04,25,10,52,8.80
2008,04,25,10,53,8.90
2008,04,25,10,54,9.00
2008,04,25,10,55,9.10
2008,04,25,10,56,9.20
2008,04,25,10,57,9.20
2008,04,25,10,58,9.20
2008,04,25,10,59,9.20
2008,04,25,11,00,9.20
2008,04,25,11,01,9.20
2008,04,25,11,02,9.20
2008,04,25,11,03,9.20
2008,04,25,11,04,9.20
2008,04,25,11,05,9.20
2008,04,25,11,06,9.20
2008,04,25,11,07,9.20
2008,04,25,11,08,9.20
2008,04,25,11,09,9.10
2008,04,25,11,10,9.10
2008,04,25,11,11,9.00
2008,04,25,11,12,9.00
2008,04,25,11,13,8.90
2008,04,25,11,14,8.80
2008,04,25,11,15,8.70
2008,04,25,11,16,8.70
2008,04,25,11,17,8.60
2008,04,25,11,18,8.60
2008,04,25,11,19,8.60
2008,04,25,11,20,8.60
2008,04,25,11,21,8.60
2008,04,25,11,22,8.50
2008,04,25,11,23,8.50
2008,04,25,11,24,8.40
2008,04,25,11,25,8.40
2008,04,25,11,26,8.30
2008,04,25,11,27,8.30
2008,04,25,11,28,8.30
2008,04,25,11,29,8.30
2008,04,25,11,30,8.30
2008,04,25,11,31,8.30
2008,04,25,11,32,8.20
2008,04,25,11,33,8.30
2008,04,25,11,34,8.30
2008,04,25,11,35,8.30
2008,04,25,11,36,8.30
2008,04,25,11,37,8.30
2008,04,25,11,38,8.30
2008,04,25,11,39,8.30
2008,04,25,11,40,8.30
2008,04,25,11,41,8.30
2008,04,25,11,42,8.30
2008,04,25,11,43,8.30
2008,04,25,11,44,8.20
2008,04,25,11,45,8.20
2008,04,25,11,46,8.20
2008,04,25,11,47,8.10
2008,04,25,11,48,8.10
2008,04,25,11,49,8.10
2008,04,25,11,50,8.10
2008,04,25,11,51,8.10
2008,04,25,11,52,8.10
2008,04,25,11,53,8.10
2008,04,25,11,54,8.00
2008,04,25,11,55,7.90
2008,04,25,11,56,7.90
2008,04,25,11,57,7.90
2008,04,25,11,58,7.80
2008,04,25,11,59,7.80
2008,04,25,12,00,7.90
2008,04,25,12,01,7.90
2008,04,25,12,02,7.90
2008,04,25,12,03,7.90
2008,04,25,12,04,7.90
2008,04,25,12,05,7.90
2008,04,25,12,06,8.00
2008,04,25,12,07,8.00
2008,04,25,12,08,8.00
2008,04,25,12,09,8.00
2008,04,25,12,10,8.10
2008,04,25,12,11,8.10
2008,04,25,12,12,8.10
2008,04,25,12,13,8.10
2008,04,25,12,14,8.20
2008,04,25,12,15,8.20
2008,04,25,12,16,8.30
2008,04,25,12,17,8.30
2008,04,25,12,18,8.40
2008,04,25,12,19,8.40
2008,04,25,12,20,8.40
2008,04,25,12,21,8.40
2008,04,25,12,22,8.40
2008,04,25,12,23,8.30
2008,04,25,12,24,8.30
2008,04,25,12,25,8.30
2008,04,25,12,26,8.30
2008,04,25,12,27,8.30
2008,04,25,12,28,8.20
2008,04,25,12,29,8.20
2008,04,25,12,30,8.20
2008,04,25,12,31,8.20
2008,04,25,12,32,8.20
2008,04,25,12,33,8.20
2008,04,25,12,34,8.20
2008,04,25,12,35,8.20
2008,04,25,12,36,8.20
2008,04,25,12,37,8.20
2008,04,25,12,38,8.20
2008,04,25,12,39,8.20
2008,04,25,12,40,8.30
2008,04,25,12,41,8.40
2008,04,25,12,42,8.40
2008,04,25,12,43,8.40
2008,04,25,12,44,8.40
2008,04,25,12,45,8.50
2008,04,25,12,46,8.50
2008,04,25,12,47,8.50
2008,04,25,12,48,8.50
2008,04,25,12,49,8.60
2008,04,25,12,50,8.60
2008,04,25,12,51,8.60
2008,04,25,12,52,8.60
2008,04,25,12,53,8.60
2008,04,25,12,54,8.60
2008,04,25,12,55,8.60
2008,04,25,12,56,8.70
2008,04,25,12,57,8.70
2008,04,25,12,58,8.70
2008,04,25,12,59,8.70
2008,04,25,13,00,8.80
2008,04,25,13,01,8.70
2008,04,25,13,02,8.70
2008,04,25,13,03,8.70
2008,04,25,13,04,8.70
2008,04,25,13,05,8.70
2008,04,25,13,06,8.70
2008,04,25,13,07,8.70
2008,04,25,13,08,8.70
2008,04,25,13,09,8.70
2008,04,25,13,10,8.70
2008,04,25,13,11,8.70
2008,04,25,13,12,8.70
2008,04,25,13,13,8.60
2008,04,25,13,14,8.60
2008,04,25,13,15,8.50
2008,04,25,13,16,8.50
2008,04,25,13,17,8.40
2008,04,25,13,18,8.40
2008,04,25,13,19,8.40
2008,04,25,13,20,8.40
2008,04,25,13,21,8.40
2008,04,25,13,22,8.40
2008,04,25,13,23,8.40
2008,04,25,13,24,8.50
2008,04,25,13,25,8.50
2008,04,25,13,26,8.50
2008,04,25,13,27,8.60
2008,04,25,13,28,8.60
2008,04,25,13,29,8.50
2008,04,25,13,30,8.50
2008,04,25,13,31,8.50
2008,04,25,13,32,8.40
2008,04,25,13,33,8.40
2008,04,25,13,34,8.40
2008,04,25,13,35,8.40
2008,04,25,13,36,8.40
2008,04,25,13,37,8.40
2008,04,25,13,38,8.50
2008,04,25,13,39,8.50
2008,04,25,13,40,8.50
2008,04,25,13,41,8.50
2008,04,25,13,42,8.50
2008,04,25,13,43,8.50
2008,04,25,13,44,8.50
2008,04,25,13,45,8.60
2008,04,25,13,46,8.60
2008,04,25,13,47,8.60
2008,04,25,13,48,8.60
2008,04,25,13,49,8.60
2008,04,25,13,50,8.70
2008,04,25,13,51,8.70
2008,04,25,13,52,8.70
2008,04,25,13,53,8.70
2008,04,25,13,54,8.70
2008,04,25,13,55,8.70
2008,04,25,13,56,8.70
2008,04,25,13,57,8.70
2008,04,25,13,58,8.70
2008,04,25,13,59,8.70
2008,04,25,14,00,8.80
2008,04,25,14,01,8.80
2008,04,25,14,02,8.80
2008,04,25,14,03,8.80
2008,04,25,14,04,8.90
2008,04,25,14,05,8.90
2008,04,25,14,06,8.90
2008,04,25,14,07,8.90
2008,04,25,14,08,8.90
2008,04,25,14,09,8.90
2008,04,25,14,10,8.90
2008,04,25,14,11,8.90
2008,04,25,14,12,9.00
2008,04,25,14,13,9.00
2008,04,25,14,14,9.00
2008,04,25,14,15,9.00
2008,04,25,14,16,9.00
2008,04,25,14,17,9.00
2008,04,25,14,18,9.00
2008,04,25,14,19,9.00
2008,04,25,14,20,9.00
2008,04,25,14,21,9.00
2008,04,25,14,22,9.00
2008,04,25,14,23,9.00
2008,04,25,14,24,8.90
2008,04,25,14,25,8.90
2008,04,25,14,26,8.90
2008,04,25,14,27,9.00
2008,04,25,14,28,9.00
2008,04,25,14,29,9.00
2008,04,25,14,30,9.00
2008,04,25,14,31,9.10
2008,04,25,14,32,9.10
2008,04,25,14,33,9.20
2008,04,25,14,34,9.20
2008,04,25,14,35,9.20
2008,04,25,14,36,9.20
2008,04,25,14,37,9.20
2008,04,25,14,38,9.20
2008,04,25,14,39,9.20
2008,04,25,14,40,9.20
2008,04,25,14,41,9.20
2008,04,25,14,42,9.20
2008,04,25,14,43,9.20
2008,04,25,14,44,9.20
2008,04,25,14,45,9.10
2008,04,25,14,46,9.10
2008,04,25,14,47,9.10
2008,04,25,14,48,9.20
2008,04,25,14,49,9.30
2008,04,25,14,50,9.40
2008,04,25,14,51,9.50
2008,04,25,14,52,9.60
2008,04,25,14,53,9.70
2008,04,25,14,54,9.70
2008,04,25,14,55,9.80
2008,04,25,14,56,9.90
2008,04,25,14,57,9.90
2008,04,25,14,58,9.90
2008,04,25,14,59,9.80
2008,04,25,15,00,9.80
2008,04,25,15,01,9.80
2008,04,25,15,02,9.80
2008,04,25,15,03,9.80
2008,04,25,15,04,9.70
2008,04,25,15,05,9.70
2008,04,25,15,06,9.60
2008,04,25,15,07,9.50
2008,04,25,15,08,9.40
2008,04,25,15,09,9.40
2008,04,25,15,10,9.30
2008,04,25,15,11,9.30
2008,04,25,15,12,9.30
2008,04,25,15,13,9.30
2008,04,25,15,14,9.30
2008,04,25,15,15,9.40
2008,04,25,15,16,9.40
2008,04,25,15,17,9.40
2008,04,25,15,18,9.50
2008,04,25,15,19,9.60
2008,04,25,15,20,9.70
2008,04,25,15,21,9.70
2008,04,25,15,22,9.70
2008,04,25,15,23,9.70
2008,04,25,15,24,9.70
2008,04,25,15,25,9.70
2008,04,25,15,26,9.70
2008,04,25,15,27,9.70
2008,04,25,15,28,9.70
2008,04,25,15,29,9.70
2008,04,25,15,30,9.70
2008,04,25,15,31,9.70
2008,04,25,15,32,9.60
2008,04,25,15,33,9.60
2008,04,25,15,34,9.60
2008,04,25,15,35,9.50
2008,04,25,15,36,9.50
2008,04,25,15,37,9.50
2008,04,25,15,38,9.50
2008,04,25,15,39,9.50
2008,04,25,15,40,9.40
2008,04,25,15,41,9.30
2008,04,25,15,42,9.30
2008,04,25,15,43,9.30
2008,04,25,15,44,9.20
2008,04,25,15,45,9.20
2008,04,25,15,46,9.20
2008,04,25,15,47,9.10
2008,04,25,15,48,9.10
2008,04,25,15,49,9.10
2008,04,25,15,50,9.10
2008,04,25,15,51,9.10
2008,04,25,15,52,9.10
2008,04,25,15,53,9.20
2008,04,25,15,54,9.20
2008,04,25,15,55,9.20
2008,04,25,15,56,9.20
2008,04,25,15,57,9.30
2008,04,25,15,58,9.40
2008,04,25,15,59,9.50
2008,04,25,16,00,9.50
2008,04,25,16,01,9.60
2008,04,25,16,02,9.60
2008,04,25,16,03,9.70
2008,04,25,16,04,9.70
2008,04,25,16,05,9.70
2008,04,25,16,06,9.70
2008,04,25,16,07,9.70
2008,04,25,16,08,9.70
2008,04,25,16,09,9.70
2008,04,25,16,10,9.70
2008,04,25,16,11,9.70
2008,04,25,16,12,9.70
2008,04,25,16,13,9.70
2008,04,25,16,14,9.70
2008,04,25,16,15,9.70
2008,04,25,16,16,9.70
2008,04,25,16,17,9.70
2008,04,25,16,18,9.70
2008,04,25,16,19,9.70
2008,04,25,16,20,9.70
2008,04,25,16,21,9.70
2008,04,25,16,22,9.70
2008,04,25,16,23,9.70
2008,04,25,16,24,9.70
2008,04,25,16,25,9.70
2008,04,25,16,26,9.70
2008,04,25,16,27,9.70
2008,04,25,16,28,9.70
2008,04,25,16,29,9.70
2008,04,25,16,30,9.70
2008,04,25,16,31,9.70
2008,04,25,16,32,9.70
2008,04,25,16,33,9.70
2008,04,25,16,34,9.70
2008,04,25,16,35,9.70
2008,04,25,16,36,9.80
2008,04,25,16,37,9.70
2008,04,25,16,38,9.70
2008,04,25,16,39,9.70
2008,04,25,16,40,9.70
2008,04,25,16,41,9.70
2008,04,25,16,42,9.70
2008,04,25,16,43,9.70
2008,04,25,16,44,9.70
2008,04,25,16,45,9.70
2008,04,25,16,46,9.70
2008,04,25,16,47,9.70
2008,04,25,16,48,9.60
2008,04,25,16,49,9.60
2008,04,25,16,50,9.70
2008,04,25,16,51,9.70
2008,04,25,16,52,9.60
2008,04,25,16,53,9.60
2008,04,25,16,54,9.60
2008,04,25,16,55,9.50
2008,04,25,16,56,9.50
2008,04,25,16,57,9.40
2008,04,25,16,58,9.40
2008,04,25,16,59,9.40
2008,04,25,17,00,9.40
2008,04,25,17,01,9.40
2008,04,25,17,02,9.30
2008,04,25,17,03,9.30
2008,04,25,17,04,9.30
2008,04,25,17,05,9.30
2008,04,25,17,06,9.30
2008,04,25,17,07,9.30
2008,04,25,17,08,9.30
2008,04,25,17,09,9.30
2008,04,25,17,10,9.30
2008,04,25,17,11,9.20
2008,04,25,17,12,9.20
2008,04,25,17,13,9.20
2008,04,25,17,14,9.10
2008,04,25,17,15,9.00
2008,04,25,17,16,8.90
2008,04,25,17,17,8.80
2008,04,25,17,18,8.70
2008,04,25,17,19,8.70
2008,04,25,17,20,8.70
2008,04,25,17,21,8.60
2008,04,25,17,22,8.60
2008,04,25,17,23,8.60
2008,04,25,17,24,8.60
2008,04,25,17,25,8.60
2008,04,25,17,26,8.70
2008,04,25,17,27,8.70
2008,04,25,17,28,8.70
2008,04,25,17,29,8.70
2008,04,25,17,30,8.70
2008,04,25,17,31,8.70
2008,04,25,17,32,8.70
2008,04,25,17,33,8.70
2008,04,25,17,34,8.70
2008,04,25,17,35,8.70
2008,04,25,17,36,8.70
2008,04,25,17,37,8.70
2008,04,25,17,38,8.70
2008,04,25,17,39,8.70
2008,04,25,17,40,8.70
2008,04,25,17,41,8.70
2008,04,25,17,42,8.70
2008,04,25,17,43,8.70
2008,04,25,17,44,8.70
2008,04,25,17,45,8.70
2008,04,25,17,46,8.70
2008,04,25,17,47,8.70
2008,04,25,17,48,8.70
2008,04,25,17,49,8.70
2008,04,25,17,50,8.70
2008,04,25,17,51,8.70
2008,04,25,17,52,8.70
2008,04,25,17,53,8.70
2008,04,25,17,54,8.70
2008,04,25,17,55,8.70
2008,04,25,17,56,8.70
2008,04,25,17,57,8.70
2008,04,25,17,58,8.70
2008,04,25,17,59,8.70
2008,04,25,18,00,8.70
2008,04,25,18,01,8.70
2008,04,25,18,02,8.70
2008,04,25,18,03,8.60